Location: McFarlands Corners
(41.4117°N, 81.3382°W)
Time: 12:14:14
(UTC+00:00)

Tiros 1 - Pass Details

Date: 16 February 2026
Orbit: 618 x 650 km, 48.4° (Epoch: 16 March)

Event Time Altitude Azimuth Distance (km) Brightness Sun altitude
Rises 19:15:31 0° 298° (WNW) 2,892 10.5 32.1°
Reaches altitude 10° 19:17:52 10° 302° (WNW) 1,982 9.7 31.9°
Maximum altitude 19:22:22 59° 22° (NNE) 712 7.5 31.4°
Drops below altitude 10° 19:26:51 10° 103° (ESE) 1,976 9.6 31.0°
Sets 19:29:11 0° 107° (ESE) 2,882 10.4 30.8°
